Time,TemperatureF,DewpointF,PressureIn,WindDirection,WindDirectionDegrees,WindSpeedMPH,WindSpeedGustMPH,Humidity,HourlyPrecipIn,Conditions,Clouds,dailyrainin,SoftwareType,DateUTC
2013-08-29 00:14:00,79.0,70.0,30.00,North,360,0.0,0.0,75,0.00,,,0.00,,2013-08-29 05:14:00,
2013-08-29 00:23:00,79.0,70.0,30.00,North,360,0.0,0.0,75,0.00,,,0.00,,2013-08-29 05:23:00,
2013-08-29 00:52:00,78.0,70.0,30.00,North,360,0.0,0.0,77,0.00,,,0.00,,2013-08-29 05:52:00,
2013-08-29 01:12:00,78.0,70.0,29.99,South,170,0.0,0.0,76,0.00,,,0.00,,2013-08-29 06:12:00,
2013-08-29 01:22:00,78.0,70.0,29.99,South,170,0.0,0.0,76,0.00,,,0.00,,2013-08-29 06:22:00,
2013-08-29 01:52:00,78.0,71.0,30.00,North,360,0.0,0.0,78,0.00,,,0.00,,2013-08-29 06:52:00,
2013-08-29 02:12:00,77.0,70.0,30.00,North,360,0.0,0.0,80,0.00,,,0.00,,2013-08-29 07:12:00,
2013-08-29 02:22:00,77.0,70.0,30.00,North,360,0.0,0.0,80,0.00,,,0.00,,2013-08-29 07:22:00,
2013-08-29 02:53:00,76.0,70.0,29.99,North,360,0.0,0.0,81,0.00,,,0.00,,2013-08-29 07:53:00,
2013-08-29 03:12:00,76.0,70.0,29.99,North,360,0.0,0.0,83,0.00,,,0.00,,2013-08-29 08:12:00,
2013-08-29 03:22:00,76.0,70.0,29.99,North,360,0.0,0.0,83,0.00,,,0.00,,2013-08-29 08:22:00,
2013-08-29 03:52:00,75.0,70.0,30.00,South,170,0.0,1.0,84,0.00,,,0.00,,2013-08-29 08:52:00,
2013-08-29 04:12:00,75.0,70.0,29.99,North,360,0.0,0.0,84,0.00,,,0.00,,2013-08-29 09:12:00,
2013-08-29 04:22:00,75.0,70.0,29.99,North,360,0.0,0.0,84,0.00,,,0.00,,2013-08-29 09:22:00,
2013-08-29 04:55:00,75.0,71.0,29.99,North,360,0.0,0.0,86,0.00,,,0.00,,2013-08-29 09:55:00,
2013-08-29 05:14:00,75.0,70.0,30.00,North,360,0.0,2.0,84,0.00,,,0.00,,2013-08-29 10:14:00,
2013-08-29 05:24:00,75.0,70.0,30.00,North,360,0.0,2.0,84,0.00,,,0.00,,2013-08-29 10:24:00,
2013-08-29 05:53:00,76.0,70.0,29.99,North,360,0.0,0.0,83,0.00,,,0.00,,2013-08-29 10:53:00,
2013-08-29 06:12:00,76.0,70.0,29.99,South,170,0.0,0.0,83,0.00,,,0.00,,2013-08-29 11:12:00,
2013-08-29 06:22:00,76.0,70.0,29.99,South,170,0.0,0.0,83,0.00,,,0.00,,2013-08-29 11:22:00,
2013-08-29 06:52:00,76.0,70.0,30.00,South,169,1.0,1.0,83,0.00,,,0.00,,2013-08-29 11:52:00,
2013-08-29 07:11:00,76.0,70.0,30.00,North,360,0.0,0.0,83,0.00,,,0.00,,2013-08-29 12:11:00,
2013-08-29 07:22:00,76.0,70.0,30.00,North,360,0.0,0.0,83,0.00,,,0.00,,2013-08-29 12:22:00,
2013-08-29 07:52:00,75.0,70.0,30.01,North,360,0.0,0.0,85,0.00,,,0.00,,2013-08-29 12:52:00,
2013-08-29 08:12:00,76.0,71.0,30.00,SSE,159,0.0,0.0,85,0.00,,,0.00,,2013-08-29 13:12:00,
2013-08-29 08:22:00,76.0,71.0,30.00,SSE,159,0.0,0.0,85,0.00,,,0.00,,2013-08-29 13:22:00,
2013-08-29 08:52:00,77.0,71.0,30.00,SSE,157,1.0,1.0,82,0.00,,,0.00,,2013-08-29 13:52:00,
2013-08-29 09:11:00,79.0,72.0,30.01,South,174,2.0,2.0,80,0.00,,,0.00,,2013-08-29 14:11:00,
2013-08-29 09:22:00,79.0,72.0,30.01,South,174,2.0,2.0,80,0.00,,,0.00,,2013-08-29 14:22:00,
2013-08-29 09:52:00,81.0,72.0,30.01,SE,135,2.0,2.0,75,0.00,,,0.00,,2013-08-29 14:52:00,
2013-08-29 10:12:00,82.0,73.0,30.01,SE,127,1.0,1.0,74,0.00,,,0.00,,2013-08-29 15:12:00,
2013-08-29 10:22:00,82.0,73.0,30.01,SE,127,1.0,1.0,74,0.00,,,0.00,,2013-08-29 15:22:00,
2013-08-29 10:53:00,84.0,73.0,30.01,SE,132,2.0,3.0,69,0.00,,,0.00,,2013-08-29 15:53:00,
2013-08-29 11:13:00,87.0,73.0,30.01,SE,133,2.0,3.0,63,0.00,,,0.00,,2013-08-29 16:13:00,
2013-08-29 11:24:00,87.0,73.0,30.01,SE,133,2.0,3.0,63,0.00,,,0.00,,2013-08-29 16:24:00,
2013-08-29 11:54:00,90.0,75.0,30.01,SSW,199,2.0,3.0,61,0.00,,,0.00,,2013-08-29 16:54:00,
2013-08-29 12:13:00,91.0,72.0,30.00,SSW,202,1.0,3.0,54,0.00,,,0.00,,2013-08-29 17:13:00,
2013-08-29 12:22:00,91.0,72.0,30.00,SSW,202,1.0,3.0,54,0.00,,,0.00,,2013-08-29 17:22:00,
2013-08-29 12:53:00,92.0,75.0,29.99,SW,227,1.0,2.0,58,0.00,,,0.00,,2013-08-29 17:53:00,
2013-08-29 13:12:00,93.0,73.0,29.99,NW,310,1.0,1.0,53,0.00,,,0.00,,2013-08-29 18:12:00,
2013-08-29 13:21:00,93.0,73.0,29.99,NW,310,1.0,1.0,53,0.00,,,0.00,,2013-08-29 18:21:00,
2013-08-29 13:52:00,93.0,72.0,29.98,ESE,122,1.0,2.0,51,0.00,,,0.00,,2013-08-29 18:52:00,
2013-08-29 14:11:00,93.0,73.0,29.98,South,170,3.0,3.0,52,0.00,,,0.00,,2013-08-29 19:11:00,
2013-08-29 14:22:00,93.0,73.0,29.98,South,170,3.0,3.0,52,0.00,,,0.00,,2013-08-29 19:22:00,
2013-08-29 14:53:00,94.0,71.0,29.97,South,190,2.0,3.0,47,0.00,,,0.00,,2013-08-29 19:53:00,
2013-08-29 15:13:00,94.0,71.0,29.96,SSE,151,2.0,2.0,47,0.00,,,0.00,,2013-08-29 20:13:00,
2013-08-29 15:22:00,94.0,71.0,29.96,SSE,151,2.0,2.0,47,0.00,,,0.00,,2013-08-29 20:22:00,
2013-08-29 15:52:00,94.0,71.0,29.95,ESE,111,1.0,3.0,47,0.00,,,0.00,,2013-08-29 20:52:00,
2013-08-29 16:12:00,94.0,70.0,29.93,SSE,161,2.0,5.0,46,0.00,,,0.00,,2013-08-29 21:12:00,
2013-08-29 16:22:00,94.0,70.0,29.93,SSE,161,2.0,5.0,46,0.00,,,0.00,,2013-08-29 21:22:00,
2013-08-29 16:54:00,94.0,72.0,29.94,ESE,121,2.0,2.0,50,0.00,,,0.00,,2013-08-29 21:54:00,
2013-08-29 17:14:00,93.0,69.0,29.93,North,360,0.0,2.0,46,0.00,,,0.00,,2013-08-29 22:14:00,
2013-08-29 17:24:00,93.0,69.0,29.93,North,360,0.0,2.0,46,0.00,,,0.00,,2013-08-29 22:24:00,
2013-08-29 17:53:00,92.0,68.0,29.93,South,187,1.0,2.0,45,0.00,,,0.00,,2013-08-29 22:53:00,
2013-08-29 18:13:00,92.0,68.0,29.92,SE,127,2.0,2.0,46,0.00,,,0.00,,2013-08-29 23:13:00,
2013-08-29 18:22:00,92.0,68.0,29.92,SE,127,2.0,2.0,46,0.00,,,0.00,,2013-08-29 23:22:00,
2013-08-29 18:42:00,91.0,69.0,29.92,ESE,103,1.0,2.0,49,0.00,,,0.00,,2013-08-29 23:42:00,
2013-08-29 18:53:00,91.0,69.0,29.92,ESE,103,1.0,2.0,49,0.00,,,0.00,,2013-08-29 23:53:00,
2013-08-29 19:22:00,91.0,70.0,29.92,SE,126,1.0,2.0,51,0.00,,,0.00,,2013-08-30 00:22:00,
2013-08-29 19:52:00,90.0,69.0,29.92,ESE,110,0.0,2.0,50,0.00,,,0.00,,2013-08-30 00:52:00,
2013-08-29 20:12:00,89.0,71.0,29.93,ESE,106,1.0,2.0,55,0.00,,,0.00,,2013-08-30 01:12:00,
2013-08-29 20:22:00,89.0,71.0,29.93,ESE,106,1.0,2.0,55,0.00,,,0.00,,2013-08-30 01:22:00,
2013-08-29 20:52:00,88.0,70.0,29.93,SE,139,2.0,3.0,56,0.00,,,0.00,,2013-08-30 01:52:00,
2013-08-29 21:11:00,87.0,71.0,29.93,South,189,1.0,1.0,59,0.00,,,0.00,,2013-08-30 02:11:00,
2013-08-29 21:22:00,87.0,71.0,29.93,South,189,1.0,1.0,59,0.00,,,0.00,,2013-08-30 02:22:00,
2013-08-29 21:52:00,86.0,71.0,29.93,South,169,0.0,1.0,62,0.00,,,0.00,,2013-08-30 02:52:00,
2013-08-29 22:12:00,85.0,71.0,29.93,North,360,0.0,1.0,63,0.00,,,0.00,,2013-08-30 03:12:00,
2013-08-29 22:22:00,85.0,71.0,29.93,North,360,0.0,1.0,63,0.00,,,0.00,,2013-08-30 03:22:00,
2013-08-29 22:55:00,84.0,70.0,29.93,SSE,154,1.0,1.0,64,0.00,,,0.00,,2013-08-30 03:55:00,
2013-08-29 23:14:00,84.0,71.0,29.93,SE,146,1.0,1.0,66,0.00,,,0.00,,2013-08-30 04:14:00,
2013-08-29 23:24:00,84.0,71.0,29.93,SE,146,1.0,1.0,66,0.00,,,0.00,,2013-08-30 04:24:00,
2013-08-29 23:54:00,84.0,72.0,29.92,North,360,0.0,0.0,67,0.00,,,0.00,,2013-08-30 04:54:00,